{"data":{"norad_id":52847,"intl_designator":"2022-062T","name":"STARLINK-4206","alt_names":[],"object_type":"PAYLOAD","status":"ACTIVE","operator":null,"country":"US","launch_date":"2022-06-17","launch_site_code":"AFETR","launch_vehicle":null,"mission":null,"orbit_class":"UNKNOWN","rcs_meters":null,"size_class":null,"mass_kg":null,"dimensions":null,"purposes":["comms"],"wikipedia_slug":null,"has_3d_model":false,"image_url":null,"decayed_at":null,"tle_current":{"epoch":"2026-05-25T00:31:29.110944Z","epoch_age_seconds":83309,"freshness":"FRESH","line1":"1 52847U 22062T   26145.02186471  .00000294  00000+0  36537-4 0  9997","line2":"2 52847  53.2147  51.4502 0001322  90.5974 269.5170 15.08839514217317","mean_motion":15.08839514,"eccentricity":0.0001322,"inclination_deg":53.2147,"raan_deg":51.4502,"arg_perigee_deg":90.5974,"mean_anomaly_deg":269.517,"bstar":3.6537e-5,"rev_number":21731,"period_min":95.437585418379,"perigee_km":538.83033048827,"apogee_km":540.65941845588,"semimajor_km":6917.8818744721,"source":"CELESTRAK","updated_at":"2026-05-25T13:38:17.244158Z"}}}